{"data":{"norad_id":63024,"epoch":"2026-09-21T11:08:20.333472Z","epoch_age_seconds":82304,"freshness":"FRESH","line1":"1 63024U 25032V   26264.46412423  .00007854  00000+0  29455-3 0  9994","line2":"2 63024  43.0019 310.2028 0001629 282.2431  77.8239 15.27589819 90404","mean_motion":15.27589819,"eccentricity":0.0001629,"inclination_deg":43.0019,"raan_deg":310.2028,"arg_perigee_deg":282.2431,"mean_anomaly_deg":77.8239,"bstar":0.00029455,"rev_number":9040,"period_min":94.266142788426,"perigee_km":481.90201215323,"apogee_km":484.13737700432,"semimajor_km":6861.1566945788,"source":"CELESTRAK","updated_at":"2026-09-22T09:00:49.742748Z"}}